Flag for Germany Weather past 2 weeks in Bingen am Rhein, Rhineland-Palatinate, Germany

Now
46 °F

Sunny.


Feels Like: 42 °F
Forecast: 30 / 63 °F
Wind: 8 mph from East

Location: Wiesbaden Airport


UV Index: 3 (Moderate)

Visibility: N/A


Pressure: 30.45 "Hg

Humidity: 66%

Dew point: 36 °F

Location of Bingen am RheinLocation

Historic Weather in Bingen am Rhein

°F

Bingen am Rhein temperature yesterday

Maximum temperature yesterday: 49 °F (at 3:58 PM)
Minimum temperature yesterday: 39 °F (at 4:58 AM)
Average temperature yesterday: 44 °F

Past Weeks' High & Low Weather Summary

 TemperatureHumidityPressure
High72 °F (Apr 4, 4:58 PM)100% (Apr 6, 3:58 AM)30.44 "Hg (Apr 6, 3:58 AM)
Low32 °F (Apr 16, 3:58 AM)30% (Apr 1, 3:58 PM)29.66 "Hg (Apr 3, 2:58 AM)
Average55 °F67%30.02 "Hg
* Reported Apr 1 8:58 AM — Apr 16 8:58 AM, Bingen am Rhein, Weather by CustomWeather, © 2014

Note: Actual official high and low records may vary slightly from our data, if they occured in-between our weather recording intervals... More about our weather records

Advertising

Historic Weather Conditions — Data for Previous 24 hours

 ConditionsComfort  
Time TempWeatherWind HumidityBarometerVisibility
8:58 AM
Apr 16
44 °FSunny.1 mph70%30.44 "HgN/A
7:58 AM39 °FSunny.3 mph81%30.43 "HgN/A
6:58 AM35 °FClear.1 mph84%30.41 "HgN/A
5:58 AM34 °FClear.5 mph85%30.41 "HgN/A
4:58 AM34 °FClear.5 mph86%30.40 "HgN/A
3:58 AM32 °FClear.No wind87%30.39 "HgN/A
2:58 AM36 °FClear.3 mph81%30.38 "HgN/A
12:58 AM41 °FClear.2 mph70%30.37 "HgN/A
11:58 PM
Apr 15
43 °FPassing clouds.5 mph66%30.35 "HgN/A
10:58 PM44 °FOvercast.5 mph68%30.35 "HgN/A
9:58 PM45 °FOvercast.2 mph64%30.33 "HgN/A
8:58 PM45 °FMore clouds than sun.2 mph61%30.31 "HgN/A
7:58 PM48 °FOvercast.5 mph50%30.31 "HgN/A
6:58 PM48 °FOvercast.12 mph50%30.30 "HgN/A
5:58 PM48 °FOvercast.8 mph50%30.30 "HgN/A
4:58 PM48 °FOvercast.12 mph50%30.30 "HgN/A
3:58 PM49 °FMostly cloudy.12 mph51%30.30 "HgN/A
2:58 PM48 °FOvercast.9 mph50%30.31 "HgN/A
1:58 PM46 °FMostly cloudy.8 mph53%30.31 "HgN/A
12:58 PM46 °FMore clouds than sun.5 mph55%30.31 "HgN/A
11:58 AM46 °FMostly cloudy.10 mph53%30.31 "HgN/A
10:58 AM45 °FCloudy.8 mph60%30.30 "HgN/A
Weather by CustomWeather, © 2014

See weather overview